Temperature
18 18 18 18 18 18 17 17 17 17 17 17 17 17 17 17 17 17 17 17 17 17 17 17 17 17 16 16 16 16 16 16 16 16 16 16 16 16 16 15 15 15 15
18 18 18 18 18 18 17 17 17 17 17 17 17 17 17 17 17 17 17 17 17 17 17 17 17 16 16 16 16 16 16 16 16 16 16 16 16 16 16 15 15 15 15
18 18 17 18 18 17 17 17 17 17 17 17 17 17 17 17 17 17 17 17 17 17 16 16 16 16 16 16 16 16 16 16 16 16 16 16 16 16 16 15 15 15 15
18 17 17 17 17 17 17 17 17 17 17 17 17 17 17 17 17 17 17 17 17 16 16 16 16 16 16 16 16 16 16 16 16 16 16 16 16 16 15 15 15 15 15
18 17 17 17 17 17 17 17 17 17 17 17 17 17 17 17 17 17 17 17 16 16 16 16 16 16 16 16 16 16 16 16 16 16 16 16 16 16 15 15 15 15 15
18 17 17 17 17 17 17 17 17 17 17 17 17 17 17 17 17 17 17 16 16 16 16 16 16 16 16 16 16 16 16 16 16 16 16 16 16 15 15 15 15 15 15
18 17 17 17 17 17 17 17 17 17 17 17 17 17 17 17 17 17 17 17 17 17 16 16 16 16 16 16 16 16 16 16 16 16 16 16 16 15 15 15 15 15 15
18 17 18 17 17 17 17 17 17 17 17 17 17 17 17 17 17 17 17 17 17 17 17 17 16 16 16 16 16 16 16 16 16 16 16 16 16 15 15 15 15 15 15
18 18 17 17 17 17 17 17 17 17 17 17 17 17 17 17 17 17 17 17 17 17 17 17 17 16 16 16 16 16 16 16 16 16 16 16 16 16 15 15 15 15 15
18 18 17 17 17 17 17 17 17 17 17 17 17 17 17 17 17 17 17 17 17 17 17 17 17 17 17 16 16 16 16 16 16 16 15 15 15 15 15 15 15 15 15
18 18 17 17 17 17 17 17 17 17 17 17 17 17 17 17 17 17 17 18 18 18 17 17 17 17 17 17 17 16 16 16 16 16 16 15 15 15 15 15 15 15 15
18 18 17 17 17 17 17 17 17 17 17 17 17 17 17 17 17 17 17 17 18 18 18 17 17 17 17 17 17 17 16 16 16 16 16 16 15 15 15 15 15 15 15
18 18 18 17 17 17 17 17 17 17 17 17 17 17 17 17 17 17 17 17 17 17 17 17 17 17 17 17 17 17 17 16 16 16 16 16 15 15 15 15 15 15 15
18 18 18 17 17 17 17 17 17 17 17 17 17 17 17 17 17 17 17 17 17 17 17 17 17 17 17 17 17 17 17 16 16 16 16 16 15 15 15 15 15 15 15
17 17 17 17 17 17 17 17 17 17 17 16 17 17 17 17 17 17 17 17 17 16 17 17 17 17 17 17 17 16 16 16 16 16 16 16 16 15 15 15 15 15 15
17 17 17 17 17 17 17 17 17 17 16 16 16 16 16 16 16 16 16 16 16 16 16 17 17 17 17 17 16 16 16 16 16 16 16 15 15 15 15 15 15 15 14
17 17 17 17 17 17 16 16 16 16 16 16 16 16 16 16 16 16 16 16 16 16 16 16 16 16 16 16 16 16 16 16 16 15 15 15 15 15 15 15 14 14 14
17 17 17 16 16 16 16 16 16 16 16 16 16 16 16 16 16 16 16 16 16 16 16 16 16 16 16 16 15 15 15 15 15 15 15 15 15 15 14 14 14 14 14
16 16 16 16 16 16 16 16 16 16 16 16 16 16 16 16 15 15 15 15 15 15 15 15 15 15 15 15 15 15 15 15 15 14 14 14 14 14 14 14 14 14 14
16 16 16 16 16 16 15 15 15 15 15 15 15 15 15 15 15 15 15 15 15 15 15 15 15 15 14 14 14 14 14 14 14 14 14 14 14 13 13 13 13 13 13
15 15 15 15 15 15 15 15 15 15 15 15 15 15 15 15 15 15 14 14 14 14 14 14 14 14 14 14 14 13 13 13 13 13 13 13 13 13 13 13 13 12 12
15 15 15 15 15 15 14 14 15 15 14 14 14 14 14 14 14 14 14 14 14 14 14 14 13 13 13 13 13 13 13 13 12 12 12 12 12 12 12 12 12 12 12
14 15 14 14 14 14 14 14 14 14 14 14 14 14 14 14 14 13 13 13 13 13 13 13 13 13 12 12 12 12 12 12 12 11 11 11 11 11 11 11 11 11 10
14 14 14 14 13 13 13 13 14 14 14 13 13 13 13 13 13 13 13 13 12 12 12 12 12 12 12 12 11 11 11 11 11 11 11 10 10 10 10 10 10 10 10
14 13 13 13 13 13 13 13 13 13 13 13 13 12 12 12 12 12 12 12 12 11 11 11 11 11 11 11 11 11 11 10 10 10 10 9 9 9 9 9 9 9 9
13 13 13 13 13 13 13 13 13 13 13 12 12 12 12 12 11 11 12 11 11 11 11 10 10 10 10 10 10 10 10 10 9 9 9 9 8 8 8 8 8 8 8
Wind_Speed
3 3 2 3 3 3 3 3 4 3 3 4 5 6 7 7 8 7 7 9 10 9 9 9 9 9 9 8 8 9 8 9 9 9 9 9 8 8 8 8 7 7 7
5 4 3 3 2 3 3 4 3 3 2 3 3 5 6 7 7 7 7 8 10 10 10 9 9 9 9 9 8 8 9 9 9 9 9 9 9 8 8 8 7 7 7
8 6 3 3 3 4 4 3 3 2 2 2 2 4 5 6 7 7 7 7 8 9 10 10 10 10 10 9 9 9 9 9 9 9 9 9 9 9 9 8 8 7 7
10 7 5 4 5 5 4 3 2 2 1 2 2 2 3 4 6 7 7 7 7 7 9 10 10 10 10 11 10 10 10 10 10 10 10 10 10 10 10 9 9 8 8
11 9 6 5 6 4 3 3 2 2 2 2 2 1 1 2 4 6 7 8 8 8 8 9 11 11 11 11 11 11 11 12 12 12 11 11 11 11 11 11 10 10 9
12 10 7 7 7 4 3 3 3 2 2 3 2 1 0 2 3 4 6 7 8 9 9 9 10 11 12 13 12 12 13 13 13 13 13 13 13 13 13 12 12 12 11
12 10 6 6 6 5 5 5 3 3 2 2 2 1 1 1 3 4 5 6 8 10 10 11 10 10 10 13 14 14 14 14 14 14 14 14 14 14 14 14 14 13 13
12 11 8 7 7 5 5 5 4 3 2 3 3 2 1 2 2 4 4 6 7 8 10 11 12 12 12 11 12 15 15 15 15 15 16 16 16 16 15 15 15 15 15
12 11 10 8 7 7 7 7 6 6 4 3 2 4 3 4 2 2 3 5 6 6 8 10 12 13 13 13 13 14 16 16 16 16 16 17 17 17 17 16 16 16 16
10 11 10 10 8 7 7 7 7 5 5 4 2 2 2 3 3 1 2 3 5 6 7 7 10 12 13 13 14 15 17 17 17 17 16 16 17 17 17 17 17 16 16
7 9 10 9 8 7 7 7 7 6 5 5 4 3 2 1 2 2 3 2 2 4 5 6 8 10 12 13 13 15 17 18 18 17 17 17 17 17 17 17 16 16 16
4 6 8 7 7 6 7 7 7 8 7 6 5 4 4 3 4 3 4 3 3 3 3 4 6 7 10 11 14 16 17 18 18 18 18 17 17 17 17 16 16 16 16
4 6 6 6 6 7 7 7 7 7 7 7 7 5 5 4 3 4 3 3 3 2 2 2 4 6 8 9 11 14 15 16 16 17 17 17 17 17 16 16 15 15 15
6 5 6 7 7 8 8 7 6 7 6 8 8 7 5 5 5 4 4 4 2 2 2 3 1 3 6 8 10 12 11 13 14 15 15 16 15 16 15 15 15 14 14
4 5 6 6 7 7 8 7 6 7 7 7 7 7 6 5 5 5 4 4 4 3 4 3 2 2 4 5 7 7 9 9 11 13 13 14 13 13 13 13 13 13 12
3 4 5 6 6 6 7 7 6 6 6 6 5 6 5 4 4 4 4 4 4 4 4 3 2 2 2 2 4 5 6 6 7 8 10 11 11 11 11 11 11 11 10
3 4 4 4 5 5 5 5 6 6 7 6 5 5 5 4 3 3 3 4 4 4 5 3 2 1 1 1 1 1 2 3 3 5 6 7 8 8 9 9 9 9 8
1 2 2 3 4 4 4 5 6 6 6 6 5 5 4 3 3 2 3 3 4 4 4 5 2 1 1 1 0 1 1 0 0 1 2 4 5 6 6 6 7 6 6
1 1 1 1 1 2 3 4 4 4 5 5 5 5 4 4 3 2 2 3 3 3 3 3 2 1 0 1 1 1 2 2 2 3 3 2 1 1 2 2 3 3 3
2 1 1 0 0 1 2 2 3 3 4 4 4 4 4 4 4 3 2 3 2 2 2 2 2 1 0 0 1 1 1 2 2 4 5 6 6 6 5 4 3 2 2
3 2 2 2 1 1 0 1 2 3 3 3 2 2 3 3 4 3 2 2 2 2 2 2 1 1 0 1 0 0 1 1 2 3 3 4 5 7 7 7 7 6 6
4 4 4 3 3 3 3 4 4 4 4 4 3 3 3 4 5 5 5 5 4 3 3 2 1 1 0 0 0 0 1 1 0 2 2 3 4 4 6 7 8 9 8
5 5 5 5 5 5 5 6 7 6 6 5 4 3 4 4 5 5 8 10 10 9 6 3 3 1 1 0 1 1 1 1 0 1 1 2 3 4 6 7 9 9 9
5 5 5 5 5 6 7 8 9 8 7 7 6 5 5 5 5 6 7 8 8 8 7 6 5 4 3 2 2 2 2 2 2 4 2 1 2 2 4 6 9 9 9
5 5 4 5 5 5 7 7 8 7 7 7 7 7 6 6 7 8 8 8 8 8 12 15 14 13 12 11 7 4 4 3 2 3 3 2 2 2 2 3 6 9 9
6 5 6 6 7 6 8 9 7 6 7 7 7 7 10 9 9 9 8 8 8 6 6 8 9 11 11 12 12 7 3 3 2 2 3 2 2 1 1 2 4 6 6
Wind_Direction
167 165 157 156 154 149 140 127 127 131 126 133 152 160 168 174 175 175 178 179 178 177 175 173 170 168 168 169 166 164 163 160 158 158 157 157 157 157 157 153 152 154 150
178 176 178 177 181 174 161 146 143 143 137 143 156 166 176 179 183 184 187 190 190 190 188 187 184 183 184 183 182 178 177 176 173 172 173 173 171 170 168 167 166 167 167
189 185 186 193 197 179 159 141 132 126 131 140 157 170 173 178 183 189 191 194 200 202 201 200 198 198 197 197 196 194 190 187 186 187 187 187 185 183 181 181 181 182 184
195 185 189 203 198 180 168 154 143 134 135 142 160 179 172 178 189 196 198 202 204 210 213 213 212 211 210 210 208 204 202 199 199 200 200 199 199 197 197 196 197 198 198
198 191 195 201 187 177 178 179 156 154 160 163 169 172 188 196 199 205 210 213 213 216 220 224 224 223 222 221 218 216 213 209 208 208 210 209 209 210 209 208 209 210 212
196 191 194 195 182 173 181 172 160 142 149 156 154 133 223 225 216 218 222 221 222 225 226 228 229 231 231 231 228 225 223 219 215 214 216 216 217 218 218 218 218 220 222
194 189 191 186 183 185 188 175 157 149 148 132 107 54 351 281 234 233 229 227 230 230 229 229 229 230 234 237 236 233 231 228 223 221 221 221 221 222 223 224 224 225 227
195 195 191 190 186 183 180 178 161 152 168 163 146 127 344 315 275 235 224 228 233 231 232 232 230 230 232 235 238 237 236 234 230 227 225 224 224 224 225 227 228 230 231
202 199 196 191 188 187 191 191 179 170 179 191 178 155 165 222 266 279 233 230 229 226 234 235 232 233 234 235 238 240 239 237 235 233 230 229 228 227 227 229 231 233 233
204 204 199 194 191 191 194 196 188 182 171 188 197 203 187 164 175 255 282 246 236 233 235 236 236 234 233 232 235 238 239 239 238 238 235 233 231 230 230 231 234 235 235
204 205 203 199 196 195 198 197 188 190 188 189 187 179 180 173 183 188 250 274 263 243 235 234 236 237 234 232 234 236 237 238 240 240 239 238 235 234 233 233 236 237 237
206 207 205 202 201 200 201 201 197 197 200 195 195 189 179 179 192 190 218 242 257 268 250 238 234 236 235 232 234 236 236 237 239 240 240 240 239 237 235 235 236 239 240
214 215 208 205 207 208 207 200 198 205 204 200 204 207 205 206 184 180 192 219 244 273 279 256 240 238 238 232 234 235 236 237 238 240 240 241 241 239 236 236 237 240 242
221 214 207 209 212 210 211 204 208 212 210 212 216 209 211 214 198 192 186 182 219 267 269 268 265 243 243 235 237 236 238 239 239 241 242 242 241 240 237 236 238 240 243
225 213 210 212 216 212 210 203 211 214 209 212 213 209 211 216 206 205 197 191 191 230 256 256 266 269 250 237 241 234 234 239 241 240 239 238 237 238 236 236 238 241 243
235 221 215 212 214 214 210 204 207 210 205 210 210 210 212 214 207 207 206 205 200 208 236 239 240 275 286 257 236 220 225 232 239 240 238 236 235 234 233 234 235 237 239
216 214 217 212 212 213 205 199 207 201 203 208 207 207 212 209 212 212 207 203 205 204 228 248 243 275 246 287 306 229 239 238 254 253 245 240 234 230 230 230 230 232 233
206 212 213 211 213 210 200 197 204 202 198 200 202 199 207 204 209 210 204 209 211 210 213 232 244 267 265 286 351 64 30 177 239 293 250 239 232 227 223 225 230 232 233
64 72 111 171 197 197 194 198 196 197 194 193 190 192 198 185 198 207 211 216 215 213 212 211 228 225 308 11 49 55 56 34 50 55 63 62 100 184 187 190 208 220 228
57 55 61 83 160 182 191 188 181 184 183 183 185 186 186 182 188 190 204 210 197 188 186 191 209 216 124 36 94 95 69 51 39 43 51 59 63 67 68 72 79 102 120
50 52 61 52 41 67 159 158 158 157 157 154 143 138 146 140 148 155 170 181 171 165 163 173 189 158 87 60 178 189 163 97 53 38 54 51 56 57 52 56 68 81 90
49 54 57 58 49 45 55 95 111 119 124 129 122 107 107 108 105 102 96 95 110 137 153 147 149 136 146 240 323 153 162 155 13 10 61 50 56 60 53 59 68 76 79
53 55 52 56 56 46 63 83 89 100 100 103 103 96 90 82 87 92 84 77 70 72 91 122 121 119 113 58 118 76 71 93 112 350 79 65 50 59 54 55 65 73 74
59 58 54 57 62 55 69 81 87 85 81 76 77 83 86 79 83 95 94 81 68 58 63 73 82 70 65 72 94 112 119 103 75 37 42 76 36 46 45 49 55 63 64
60 60 57 57 63 54 59 76 87 86 81 73 67 66 77 81 79 89 96 91 79 68 68 74 73 67 63 63 71 84 80 91 71 33 23 58 40 39 38 31 39 49 54
64 67 64 59 63 59 56 66 83 92 87 78 67 62 67 78 83 89 96 97 91 76 73 68 61 55 55 55 55 58 72 86 83 53 17 37 33 35 52 19 16 23 35
Height
1568 1570 1571 1573 1574 1576 1577 1578 1580 1581 1582 1584 1585 1585 1586 1587 1587 1588 1588 1589 1589 1590 1591 1592 1593 1594 1595 1596 1597 1598 1599 1600 1600 1601 1602 1603 1604 1605 1606 1607 1607 1608 1609
1569 1571 1572 1574 1575 1576 1578 1579 1580 1582 1583 1584 1585 1586 1587 1587 1588 1588 1589 1589 1590 1591 1591 1592 1593 1594 1595 1596 1597 1598 1599 1600 1601 1602 1602 1603 1604 1605 1606 1607 1608 1608 1609
1569 1571 1572 1574 1575 1577 1578 1579 1581 1582 1583 1584 1585 1586 1587 1587 1588 1589 1589 1590 1590 1591 1591 1592 1593 1594 1595 1596 1597 1598 1598 1599 1600 1601 1602 1603 1604 1605 1606 1606 1607 1608 1609
1568 1570 1572 1574 1575 1577 1578 1579 1580 1582 1583 1584 1585 1586 1587 1587 1588 1589 1589 1590 1590 1591 1591 1592 1593 1594 1594 1595 1596 1597 1598 1599 1600 1601 1601 1602 1603 1604 1605 1606 1607 1607 1608
1567 1569 1571 1573 1575 1576 1578 1579 1580 1581 1582 1584 1585 1585 1586 1587 1587 1588 1589 1589 1590 1590 1591 1592 1592 1593 1594 1594 1595 1596 1597 1598 1599 1599 1600 1601 1602 1603 1604 1605 1606 1606 1607
1566 1568 1570 1572 1574 1575 1577 1578 1579 1581 1582 1583 1584 1584 1585 1586 1586 1587 1588 1589 1589 1590 1590 1591 1592 1592 1593 1593 1594 1595 1595 1596 1597 1598 1599 1600 1600 1601 1602 1603 1604 1605 1605
1565 1567 1569 1570 1572 1574 1575 1577 1578 1579 1580 1582 1583 1583 1584 1584 1585 1586 1586 1587 1588 1588 1589 1590 1590 1591 1592 1592 1593 1593 1594 1595 1595 1596 1597 1597 1598 1599 1600 1601 1602 1603 1603
1563 1565 1567 1569 1570 1572 1573 1575 1576 1577 1579 1580 1581 1582 1582 1584 1583 1584 1584 1585 1586 1586 1587 1588 1589 1589 1590 1590 1591 1591 1592 1593 1593 1594 1594 1595 1596 1597 1598 1598 1599 1600 1601
1560 1562 1564 1566 1568 1569 1571 1572 1574 1575 1576 1578 1579 1580 1581 1580 1581 1582 1582 1583 1583 1584 1585 1586 1586 1587 1588 1588 1589 1589 1590 1590 1591 1591 1592 1592 1593 1594 1595 1595 1596 1597 1598
1558 1560 1562 1564 1565 1567 1568 1570 1571 1573 1574 1575 1576 1577 1579 1579 1579 1579 1580 1581 1581 1582 1582 1583 1584 1585 1585 1585 1586 1587 1587 1588 1588 1589 1589 1590 1590 1591 1591 1592 1593 1594 1594
1554 1556 1558 1560 1562 1564 1565 1567 1568 1570 1571 1572 1574 1575 1576 1576 1577 1578 1577 1578 1579 1579 1580 1580 1581 1582 1582 1583 1583 1583 1584 1585 1585 1586 1586 1587 1587 1588 1588 1589 1590 1590 1591
1551 1553 1555 1556 1558 1560 1562 1564 1565 1567 1568 1569 1570 1572 1573 1573 1574 1575 1575 1575 1576 1576 1577 1577 1578 1579 1579 1579 1580 1580 1581 1581 1582 1582 1583 1583 1584 1584 1585 1585 1586 1587 1587
1547 1549 1551 1553 1554 1556 1558 1560 1561 1562 1564 1565 1567 1568 1569 1570 1571 1572 1572 1572 1572 1573 1573 1574 1574 1575 1576 1576 1576 1577 1577 1578 1578 1579 1579 1580 1580 1580 1581 1581 1582 1583 1583
1544 1546 1547 1549 1550 1552 1553 1555 1557 1558 1560 1561 1563 1564 1565 1566 1568 1569 1569 1570 1569 1570 1569 1570 1571 1571 1572 1572 1573 1573 1573 1574 1574 1575 1575 1576 1576 1576 1577 1577 1578 1578 1579
1540 1541 1543 1544 1546 1547 1549 1550 1552 1553 1555 1557 1558 1560 1561 1562 1563 1564 1565 1566 1567 1566 1566 1566 1567 1568 1568 1569 1569 1569 1569 1570 1570 1571 1571 1571 1572 1572 1572 1573 1573 1574 1574
1536 1537 1538 1540 1541 1543 1544 1546 1547 1549 1550 1552 1554 1555 1556 1558 1559 1560 1561 1562 1563 1563 1562 1562 1563 1564 1564 1565 1565 1565 1565 1566 1566 1566 1566 1567 1567 1568 1568 1569 1569 1570 1570
1532 1533 1534 1535 1536 1538 1540 1541 1542 1544 1545 1547 1549 1550 1552 1553 1554 1555 1556 1557 1558 1559 1558 1558 1559 1560 1560 1561 1561 1561 1561 1561 1562 1562 1562 1563 1563 1563 1564 1564 1565 1565 1566
1529 1529 1530 1531 1532 1533 1535 1536 1538 1539 1541 1542 1544 1546 1547 1548 1550 1551 1552 1552 1553 1554 1555 1554 1554 1555 1556 1556 1557 1557 1557 1558 1558 1558 1558 1559 1559 1559 1560 1560 1561 1561 1561
1526 1527 1527 1527 1528 1529 1530 1532 1533 1534 1536 1538 1539 1541 1542 1544 1545 1547 1547 1548 1548 1549 1550 1550 1550 1550 1551 1552 1552 1553 1553 1554 1554 1555 1555 1555 1555 1555 1556 1556 1556 1557 1557
1524 1524 1524 1525 1525 1526 1526 1527 1528 1530 1531 1533 1535 1537 1538 1540 1541 1542 1543 1544 1544 1545 1545 1546 1546 1546 1547 1547 1548 1549 1549 1550 1551 1551 1551 1552 1552 1552 1552 1552 1552 1552 1553
1522 1522 1522 1522 1523 1523 1524 1525 1525 1526 1527 1529 1531 1533 1535 1537 1538 1539 1540 1540 1541 1541 1542 1542 1542 1543 1543 1544 1544 1545 1546 1546 1547 1548 1548 1548 1549 1548 1548 1548 1548 1549 1549
1521 1521 1521 1521 1521 1521 1522 1523 1523 1524 1524 1526 1529 1531 1533 1534 1535 1536 1537 1538 1538 1538 1539 1539 1539 1540 1540 1541 1542 1542 1543 1543 1544 1545 1545 1545 1545 1545 1545 1545 1545 1545 1545
1522 1521 1521 1521 1521 1521 1522 1523 1523 1523 1524 1526 1528 1529 1531 1532 1534 1534 1535 1535 1536 1536 1537 1538 1538 1538 1538 1538 1539 1539 1540 1540 1540 1541 1542 1541 1542 1541 1542 1542 1542 1542 1542
1522 1522 1521 1521 1521 1522 1523 1523 1524 1524 1525 1526 1528 1529 1530 1531 1533 1533 1534 1534 1534 1535 1535 1535 1536 1536 1537 1537 1537 1537 1538 1538 1538 1539 1539 1539 1539 1539 1539 1539 1539 1539 1539
1523 1523 1523 1523 1523 1523 1524 1525 1525 1526 1526 1528 1529 1530 1531 1532 1533 1533 1534 1534 1534 1534 1535 1535 1535 1535 1536 1535 1535 1536 1536 1536 1536 1537 1537 1537 1537 1537 1537 1537 1537 1537 1537
1524 1524 1524 1525 1525 1525 1526 1527 1527 1528 1528 1529 1529 1530 1532 1532 1533 1533 1534 1534 1534 1535 1535 1535 1535 1535 1536 1536 1536 1535 1535 1535 1535 1536 1536 1536 1536 1536 1536 1536 1536 1535 1535